Location: *
(58.7167°N, 26.1833°E)
Time: 04:37:57
(UTC+00:00)

Cosmos 2369 - Pass Details

Date: 25 August 2019
Orbit: 841 x 854 km, 71.0° (Epoch: 17 September)

Event Time Altitude Azimuth Distance (km) Brightness Sun altitude
Rises 18:36:05 0° 322° (NW) 3,411 8.6 -7.6°
Reaches altitude 10° 18:38:35 10° 318° (NW) 2,472 7.7 -7.9°
Maximum altitude 18:44:05 53° 243° (WSW) 1,028 4.4 -8.4°
Drops below altitude 10° 18:49:33 10° 168° (SSE) 2,461 5.7 -9.0°
Enters shadow 18:50:49 - 165° (SSE) 2,934 6.0 -9.1°
